Location: Caltech
(34.1382°N, 118.1253°W)
Time: 01:34:09
(UTC-08:00)

Lacrosse 5 - Visible Passes

Search period start: 09 December 2016 00:00
Search period end: 19 December 2016 00:00
Orbit: 713 x 726 km, 57.0° (Epoch: 06 December)

Date Brightness Start Highest point End Pass type
(mag) Time Alt. Az. Time Alt. Az. Time Alt. Az.
09 Dec 3.7 04:12:56 23° NNE 04:12:56 23° NNE 04:14:49 10° NE visible
09 Dec 3.6 05:52:11 13° NW 05:53:28 14° NNW 05:56:08 10° N visible
10 Dec 3.5 05:01:34 19° N 05:01:34 19° N 05:03:48 10° NNE visible
11 Dec 4.4 04:10:47 11° NNE 04:10:47 11° NNE 04:11:05 10° NNE visible
12 Dec 4.2 04:59:06 11° N 04:59:06 11° N 04:59:26 10° N visible
